Eielson AFB, AK

7:10 PM AKST on February 23, 2017 (GMT -0900)
Eielson Air Force Base

Weather History for PAEI - August, 2013

Change the Weather History Date:

Monday, August 12, 2013

  Actual Average Record
Temperature  
Mean Temperature 60 °F -  
Max Temperature 73 °F 67 °F 90 °F (1990)
Min Temperature 49 °F 47 °F 32 °F (1969)
Degree Days  
Heating Degree Days 4    
Growing Degree Days 10 (Base 50)    
Moisture  
Dew Point 52 °F    
Average Humidity 74    
Maximum Humidity 92    
Minimum Humidity 52    
Precipitation  
Precipitation 0.00 in - - ()
Sea Level Pressure  
Sea Level Pressure 30.02 in    
Wind  
Wind Speed 4 mph (ESE)    
Max Wind Speed 7 mph    
Max Gust Speed -    
Visibility 8 miles    
Events      
Averages and records for this station are not official NWS values.
T = Trace of Precipitation, MM = Missing Value Source: NWS Daily Summary

Daily Weather History Graph

Daily Weather History Graph

Search for Another Location

Airport or City:

Trip Planner

Search our weather history database for the weather conditions in past years. The results will help you decide how hot, cold, wet, or windy it might be!

Date:

Astronomy

Aug. 12, 2013 Rise Set
Actual Time 5:27 AM AKDT 10:16 PM AKDT
Civil Twilight 4:16 AM AKDT 11:26 PM AKDT
Nautical Twilight 2:25 AM AKDT 1:20 AM AKDT
Astronomical Twilight Sun does not rise Sun does not rise
Moon 2:12 PM AKDT (8/12) 10:27 PM AKDT (8/12)
Length of Visible Light 19h 10m
Length of Day
16h 48m
Waxing Crescent, 33% of the Moon is Illuminated
Aug 12
Waxing Crescent
Aug 14
First Quarter
Aug 20
Full
Aug 28
Last Quarter
Sep 5
New

Hourly Weather History & Observations

Time (AKDT) Temp. Dew Point Humidity Pressure Visibility Wind Dir Wind Speed Gust Speed Precip Events Conditions
12:55 AM 61.0 °F 49.8 °F 67% 29.98 in 10.0 mi Variable 4.6 mph - N/A   Overcast
1:55 AM 57.7 °F 49.8 °F 75% 30.00 in 10.0 mi Variable 3.5 mph - N/A   Mostly Cloudy
2:55 AM 52.9 °F 48.0 °F 84% 30.01 in 9.0 mi Variable 4.6 mph - N/A   Mostly Cloudy
2:57 AM 53.6 °F 48.2 °F 82% 30.01 in 9.0 mi Variable 4.6 mph - N/A   Mostly Cloudy
3:55 AM 51.3 °F 47.5 °F 87% 30.01 in 9.0 mi SSE 5.8 mph - N/A   Overcast
4:12 AM 50.0 °F 46.4 °F 87% 30.02 in 9.0 mi SSE 6.9 mph - N/A   Overcast
4:55 AM 50.2 °F 46.9 °F 89% 30.02 in 10.0 mi Variable 6.9 mph - N/A   Overcast
5:55 AM 49.5 °F 47.1 °F 92% 30.04 in 10.0 mi Variable 4.6 mph - N/A   Clear
6:55 AM 50.9 °F 48.2 °F 90% 30.05 in 6.0 mi Variable 4.6 mph - N/A   Smoke
7:55 AM 55.4 °F 50.9 °F 85% 30.05 in 6.0 mi Variable 3.5 mph - N/A   Smoke
8:44 AM 57.2 °F 51.8 °F 82% 30.06 in 5.0 mi Calm Calm - N/A   Smoke
8:55 AM 57.7 °F 52.7 °F 83% 30.06 in 5.0 mi Variable 4.6 mph - N/A   Smoke
9:55 AM 58.1 °F 52.9 °F 83% 30.06 in 6.0 mi Variable 4.6 mph - N/A   Smoke
10:38 AM 59.0 °F 53.6 °F 82% 30.06 in 6.0 mi Variable 2.3 mph - N/A   Smoke
10:55 AM 60.1 °F 53.2 °F 78% 30.06 in 6.0 mi Calm Calm - N/A   Smoke
11:49 AM 62.6 °F 53.6 °F 72% 30.06 in 6.0 mi North 3.5 mph - N/A   Smoke
11:55 AM 62.6 °F 53.6 °F 72% 30.06 in 6.0 mi Calm Calm - N/A   Smoke
12:55 PM 65.1 °F 54.1 °F 68% 30.06 in 6.0 mi East 3.5 mph - N/A   Smoke
1:55 PM 68.7 °F 53.8 °F 59% 30.04 in 5.0 mi Variable 5.8 mph - N/A   Smoke
2:55 PM 69.6 °F 54.5 °F 59% 30.02 in 5.0 mi Variable 3.5 mph - N/A   Smoke
3:55 PM 71.2 °F 54.3 °F 55% 30.01 in 6.0 mi North 5.8 mph - N/A   Smoke
4:55 PM 72.9 °F 54.5 °F 52% 30.00 in 10.0 mi Calm Calm - N/A   Clear
5:55 PM 72.1 °F 54.9 °F 54% 29.99 in 7.0 mi Calm Calm - N/A   Mostly Cloudy
6:55 PM 72.3 °F 54.3 °F 53% 29.98 in 7.0 mi Calm Calm - N/A   Mostly Cloudy
7:55 PM 71.6 °F 56.1 °F 58% 29.98 in 10.0 mi Variable 5.8 mph - N/A   Mostly Cloudy
8:55 PM 70.3 °F 56.3 °F 61% 29.98 in 10.0 mi Variable 3.5 mph - N/A   Mostly Cloudy
9:55 PM 67.1 °F 55.9 °F 67% 29.99 in 10.0 mi Variable 3.5 mph - N/A   Partly Cloudy
10:55 PM 63.7 °F 55.2 °F 74% 29.99 in 10.0 mi Calm Calm - N/A   Clear
11:55 PM 56.5 °F 52.9 °F 88% 29.99 in 10.0 mi South 5.8 mph - N/A   Clear